^^
Saratoga-Weather Station Historical Data
Daily Summary for January 22, 2022 Units:  Metric    English   Both
Daily Weekly Monthly Yearly Custom
  High: Low: Average:
Temperature: 5.8 °C 2.5 °C 4.2 °C
Dew Point: 3.4 °C 0.8 °C 2.3 °C
Humidity: 92% 82% 87%
Wind Speed: 13km/h 0km/h 3.8km/h
Wind Gust: 14.5km/h - -
Wind- - West
Pressure: 1035.6 hPa 1033.5 hPa -
Precipitation: 0.0 mm    
Historical Graphs
 
 
Tabular Data for January 22, 2022
Time Temperature Dew Point Pressure Wind Wind Speed Wind Gust Humidity Rainfall Rate (Hourly) solar
00:02 3.3 °C 2.1 °C 1034.2 hPa West 4.7 km/h 12.9 km/h 92% 0.0 mm 0 W/m2
00:07 3.3 °C 2 °C 1034.2 hPa WNW 4.7 km/h 11.3 km/h 91% 0.0 mm 0 W/m2
00:12 3.3 °C 2 °C 1034.5 hPa WNW 4.7 km/h 11.3 km/h 91% 0.0 mm 0 W/m2
00:17 3.4 °C 2.1 °C 1034.5 hPa NW 7.9 km/h 11.3 km/h 91% 0.0 mm 0 W/m2
00:22 3.4 °C 2.1 °C 1034.5 hPa West 4.7 km/h 11.3 km/h 91% 0.0 mm 0 W/m2
00:27 3.4 °C 2.1 °C 1034.2 hPa NW 4.7 km/h 12.9 km/h 91% 0.0 mm 0 W/m2
00:32 3.4 °C 2.1 °C 1034.2 hPa West 6.4 km/h 11.3 km/h 91% 0.0 mm 0 W/m2
00:37 3.4 °C 2.1 °C 1034.2 hPa West 3.2 km/h 11.3 km/h 91% 0.0 mm 0 W/m2
00:42 3.4 °C 1.9 °C 1034.2 hPa NW 3.2 km/h 11.3 km/h 90% 0.0 mm 0 W/m2
00:47 3.5 °C 2 °C 1034.2 hPa West 6.4 km/h 11.3 km/h 90% 0.0 mm 0 W/m2
00:52 3.5 °C 2 °C 1034.2 hPa WSW 6.4 km/h 11.3 km/h 90% 0.0 mm 0 W/m2
00:57 3.4 °C 1.9 °C 1034.2 hPa WNW 4.7 km/h 11.3 km/h 90% 0.0 mm 0 W/m2
01:02 3.4 °C 1.9 °C 1034.2 hPa West 9.7 km/h 11.3 km/h 90% 0.0 mm 0 W/m2
01:07 3.4 °C 1.9 °C 1033.9 hPa WNW 7.9 km/h 12.9 km/h 90% 0.0 mm 0 W/m2
01:12 3.4 °C 1.9 °C 1034.2 hPa West 6.4 km/h 12.9 km/h 90% 0.0 mm 0 W/m2
01:17 3.4 °C 1.9 °C 1034.2 hPa WSW 6.4 km/h 11.3 km/h 90% 0.0 mm 0 W/m2
01:22 3.4 °C 1.8 °C 1034.2 hPa WSW 4.7 km/h 11.3 km/h 89% 0.0 mm 0 W/m2
01:27 3.5 °C 1.9 °C 1034.2 hPa WSW 4.7 km/h 9.7 km/h 89% 0.0 mm 0 W/m2
01:32 3.5 °C 1.7 °C 1034.2 hPa WNW 6.4 km/h 9.7 km/h 88% 0.0 mm 0 W/m2
01:37 3.5 °C 1.7 °C 1034.2 hPa West 9.7 km/h 14.5 km/h 88% 0.0 mm 0 W/m2
01:42 3.5 °C 1.5 °C 1033.9 hPa WNW 11.1 km/h 14.5 km/h 87% 0.0 mm 0 W/m2
01:47 3.5 °C 1.5 °C 1034.2 hPa West 3.2 km/h 11.3 km/h 87% 0.0 mm 0 W/m2
01:52 3.4 °C 1.4 °C 1034.2 hPa WNW 4.7 km/h 6.4 km/h 87% 0.0 mm 0 W/m2
01:57 3.4 °C 1.4 °C 1034.2 hPa West 13 km/h 12.9 km/h 87% 0.0 mm 0 W/m2
02:02 3.4 °C 1.3 °C 1034.2 hPa WNW 4.7 km/h 9.7 km/h 86% 0.0 mm 0 W/m2
02:07 3.5 °C 1.2 °C 1034.2 hPa NW 4.7 km/h 6.4 km/h 85% 0.0 mm 0 W/m2
02:12 3.6 °C 1.2 °C 1034.2 hPa WNW 4.7 km/h 11.3 km/h 84% 0.0 mm 0 W/m2
02:17 3.6 °C 1 °C 1034.2 hPa WNW 4.7 km/h 6.4 km/h 83% 0.0 mm 0 W/m2
02:22 3.6 °C 1 °C 1034.2 hPa West 1.4 km/h 4.8 km/h 83% 0.0 mm 0 W/m2
02:27 3.6 °C 1 °C 1034.2 hPa West 3.2 km/h 9.7 km/h 83% 0.0 mm 0 W/m2
02:32 3.6 °C 0.8 °C 1033.9 hPa West 4.7 km/h 12.9 km/h 82% 0.0 mm 0 W/m2
02:37 3.6 °C 0.8 °C 1033.9 hPa WNW 6.4 km/h 12.9 km/h 82% 0.0 mm 0 W/m2
02:42 3.6 °C 0.8 °C 1033.9 hPa WNW 3.2 km/h 4.8 km/h 82% 0.0 mm 0 W/m2
02:47 3.6 °C 1 °C 1033.9 hPa NW 3.2 km/h 11.3 km/h 83% 0.0 mm 0 W/m2
02:52 3.5 °C 0.9 °C 1033.9 hPa NW 3.2 km/h 6.4 km/h 83% 0.0 mm 0 W/m2
02:57 3.4 °C 0.8 °C 1033.9 hPa WSW 6.4 km/h 9.7 km/h 83% 0.0 mm 0 W/m2
03:02 3.4 °C 0.8 °C 1033.9 hPa West 4.7 km/h 9.7 km/h 83% 0.0 mm 0 W/m2
03:07 3.4 °C 0.8 °C 1033.9 hPa West 1.4 km/h 6.4 km/h 83% 0.0 mm 0 W/m2
03:12 3.4 °C 0.8 °C 1034.2 hPa WNW 4.7 km/h 6.4 km/h 83% 0.0 mm 0 W/m2
03:17 3.4 °C 1 °C 1033.9 hPa WNW 1.4 km/h 3.2 km/h 84% 0.0 mm 0 W/m2
03:22 3.4 °C 1 °C 1034.2 hPa NW 1.4 km/h 4.8 km/h 84% 0.0 mm 0 W/m2
03:27 3.4 °C 1 °C 1034.2 hPa NW 3.2 km/h 6.4 km/h 84% 0.0 mm 0 W/m2
03:32 3.3 °C 0.9 °C 1034.2 hPa West 3.2 km/h 6.4 km/h 84% 0.0 mm 0 W/m2
03:37 3.3 °C 1 °C 1033.9 hPa West 4.7 km/h 9.7 km/h 85% 0.0 mm 0 W/m2
03:42 3.3 °C 1 °C 1033.9 hPa WNW 4.7 km/h 14.5 km/h 85% 0.0 mm 0 W/m2
03:47 3.3 °C 1.2 °C 1033.9 hPa WSW 6.4 km/h 9.7 km/h 86% 0.0 mm 0 W/m2
03:52 3.3 °C 1.2 °C 1033.9 hPa WNW 9.7 km/h 14.5 km/h 86% 0.0 mm 0 W/m2
03:57 3.2 °C 1.1 °C 1033.5 hPa WSW 6.4 km/h 9.7 km/h 86% 0.0 mm 0 W/m2
04:02 3.2 °C 1.1 °C 1033.5 hPa West 6.4 km/h 14.5 km/h 86% 0.0 mm 0 W/m2
04:07 3.2 °C 1.1 °C 1033.5 hPa WNW 3.2 km/h 9.7 km/h 86% 0.0 mm 0 W/m2
04:12 3.2 °C 1.1 °C 1033.5 hPa WNW 3.2 km/h 14.5 km/h 86% 0.0 mm 0 W/m2
04:17 3.2 °C 1.1 °C 1033.5 hPa West 4.7 km/h 11.3 km/h 86% 0.0 mm 0 W/m2
04:22 3.2 °C 1.2 °C 1033.5 hPa West 4.7 km/h 6.4 km/h 87% 0.0 mm 0 W/m2
04:27 3.1 °C 1.1 °C 1033.5 hPa West 4.7 km/h 12.9 km/h 87% 0.0 mm 0 W/m2
04:32 3.1 °C 1.1 °C 1033.5 hPa WSW 3.2 km/h 14.5 km/h 87% 0.0 mm 0 W/m2
04:37 3.1 °C 1.1 °C 1033.5 hPa WNW 3.2 km/h 11.3 km/h 87% 0.0 mm 0 W/m2
04:42 3.1 °C 1.1 °C 1033.5 hPa West 6.4 km/h 14.5 km/h 87% 0.0 mm 0 W/m2
04:47 3.1 °C 1.1 °C 1033.5 hPa WNW 6.4 km/h 14.5 km/h 87% 0.0 mm 0 W/m2
04:52 3.1 °C 1.1 °C 1033.5 hPa West 4.7 km/h 9.7 km/h 87% 0.0 mm 0 W/m2
04:57 3 °C 1 °C 1033.9 hPa West 3.2 km/h 12.9 km/h 87% 0.0 mm 0 W/m2
05:02 3 °C 1 °C 1033.9 hPa SW 3.2 km/h 6.4 km/h 87% 0.0 mm 0 W/m2
05:07 2.9 °C 1.1 °C 1033.9 hPa West 4.7 km/h 12.9 km/h 88% 0.0 mm 0 W/m2
05:12 2.9 °C 1.1 °C 1033.5 hPa West 1.4 km/h 11.3 km/h 88% 0.0 mm 0 W/m2
05:17 2.9 °C 1.1 °C 1033.5 hPa WNW 6.4 km/h 9.7 km/h 88% 0.0 mm 0 W/m2
05:22 2.9 °C 1.1 °C 1033.9 hPa WNW 7.9 km/h 11.3 km/h 88% 0.0 mm 0 W/m2
05:27 2.9 °C 1.1 °C 1033.9 hPa West 4.7 km/h 11.3 km/h 88% 0.0 mm 0 W/m2
05:32 2.9 °C 1.1 °C 1033.9 hPa West 4.7 km/h 9.7 km/h 88% 0.0 mm 0 W/m2
05:37 2.9 °C 1.1 °C 1033.9 hPa West 3.2 km/h 11.3 km/h 88% 0.0 mm 0 W/m2
05:42 2.9 °C 1.1 °C 1033.5 hPa WNW 3.2 km/h 9.7 km/h 88% 0.0 mm 0 W/m2
05:47 2.9 °C 1.1 °C 1033.9 hPa WNW 3.2 km/h 6.4 km/h 88% 0.0 mm 0 W/m2
05:52 2.8 °C 1 °C 1033.9 hPa West 6.4 km/h 11.3 km/h 88% 0.0 mm 0 W/m2
05:57 2.9 °C 1.1 °C 1033.9 hPa WNW 4.7 km/h 6.4 km/h 88% 0.0 mm 0 W/m2
06:02 2.9 °C 1.1 °C 1033.9 hPa West 1.4 km/h 4.8 km/h 88% 0.0 mm 0 W/m2
06:07 2.9 °C 1.1 °C 1033.9 hPa WNW 3.2 km/h 8 km/h 88% 0.0 mm 0 W/m2
06:12 2.9 °C 1.1 °C 1033.9 hPa West 4.7 km/h 6.4 km/h 88% 0.0 mm 0 W/m2
06:17 2.9 °C 1.1 °C 1033.9 hPa West 3.2 km/h 6.4 km/h 88% 0.0 mm 0 W/m2
06:22 2.9 °C 1.1 °C 1033.9 hPa West 3.2 km/h 4.8 km/h 88% 0.0 mm 0 W/m2
06:27 2.9 °C 1.1 °C 1033.9 hPa West 1.4 km/h 3.2 km/h 88% 0.0 mm 0 W/m2
06:32 2.9 °C 1.1 °C 1033.9 hPa West 6.4 km/h 6.4 km/h 88% 0.0 mm 0 W/m2
06:37 2.9 °C 1.1 °C 1033.9 hPa West 1.4 km/h 4.8 km/h 88% 0.0 mm 0 W/m2
06:42 2.9 °C 1.1 °C 1033.9 hPa West 4.7 km/h 4.8 km/h 88% 0.0 mm 0 W/m2
06:47 2.9 °C 1.1 °C 1033.9 hPa WNW 3.2 km/h 3.2 km/h 88% 0.0 mm 0 W/m2
06:52 2.9 °C 1.3 °C 1033.9 hPa WNW 3.2 km/h 4.8 km/h 89% 0.0 mm 0 W/m2
06:57 2.9 °C 1.3 °C 1033.9 hPa West 4.7 km/h 9.7 km/h 89% 0.0 mm 0 W/m2
07:02 2.9 °C 1.3 °C 1033.9 hPa WNW 4.7 km/h 11.3 km/h 89% 0.0 mm 0 W/m2
07:07 2.9 °C 1.3 °C 1033.9 hPa WSW 6.4 km/h 8 km/h 89% 0.0 mm 0 W/m2
07:12 2.9 °C 1.3 °C 1033.9 hPa WNW 3.2 km/h 4.8 km/h 89% 0.0 mm 0 W/m2
07:17 2.9 °C 1.3 °C 1033.9 hPa WNW 1.4 km/h 4.8 km/h 89% 0.0 mm 0 W/m2
07:22 2.9 °C 1.3 °C 1033.9 hPa WNW 3.2 km/h 4.8 km/h 89% 0.0 mm 0 W/m2
07:27 2.9 °C 1.3 °C 1033.9 hPa NW 3.2 km/h 6.4 km/h 89% 0.0 mm 0 W/m2
07:32 2.8 °C 1.2 °C 1034.2 hPa NW 4.7 km/h 4.8 km/h 89% 0.0 mm 0 W/m2
07:37 2.8 °C 1.2 °C 1033.9 hPa West 4.7 km/h 8 km/h 89% 0.0 mm 0 W/m2
07:43 2.8 °C 1.2 °C 1033.9 hPa West 4.7 km/h 12.9 km/h 89% 0.0 mm 0 W/m2
07:48 2.8 °C 1.2 °C 1033.9 hPa West 3.2 km/h 6.4 km/h 89% 0.0 mm 0 W/m2
07:53 2.8 °C 1.2 °C 1034.2 hPa NW 4.7 km/h 9.7 km/h 89% 0.0 mm 0 W/m2
07:58 2.8 °C 1.2 °C 1034.2 hPa WSW 3.2 km/h 12.9 km/h 89% 0.0 mm 0 W/m2
08:03 2.8 °C 1.2 °C 1034.2 hPa WNW 11.1 km/h 11.3 km/h 89% 0.0 mm 0 W/m2
08:08 2.8 °C 1.2 °C 1034.5 hPa West 4.7 km/h 6.4 km/h 89% 0.0 mm 0 W/m2
08:13 2.8 °C 1.2 °C 1034.5 hPa West 11.3 km/h 11.3 km/h 89% 0.0 mm 0 W/m2
08:18 2.8 °C 1.2 °C 1034.5 hPa West 4.7 km/h 6.4 km/h 89% 0.0 mm 0 W/m2
08:23 2.8 °C 1.2 °C 1034.5 hPa West 9.7 km/h 9.7 km/h 89% 0.0 mm 0 W/m2
08:28 2.8 °C 1.2 °C 1034.5 hPa West 4.7 km/h 6.4 km/h 89% 0.0 mm 0 W/m2
08:33 2.8 °C 1.2 °C 1034.5 hPa WNW 6.4 km/h 9.7 km/h 89% 0.0 mm 0 W/m2
08:38 2.8 °C 1.2 °C 1034.5 hPa WNW 4.7 km/h 4.8 km/h 89% 0.0 mm 5 W/m2
08:43 2.8 °C 1.2 °C 1034.5 hPa West 4.7 km/h 4.8 km/h 89% 0.0 mm 7 W/m2
08:48 2.8 °C 1.2 °C 1034.5 hPa Calm   3.2 km/h 89% 0.0 mm 9 W/m2
08:53 2.8 °C 1.2 °C 1034.5 hPa WNW 1.4 km/h 3.2 km/h 89% 0.0 mm 9 W/m2
08:58 2.8 °C 1.2 °C 1034.5 hPa WNW 3.2 km/h 4.8 km/h 89% 0.0 mm 11 W/m2
09:03 2.8 °C 1.2 °C 1034.5 hPa WNW 1.4 km/h 3.2 km/h 89% 0.0 mm 14 W/m2
09:08 2.7 °C 1.1 °C 1034.5 hPa Calm   3.2 km/h 89% 0.0 mm 21 W/m2
09:13 2.7 °C 1.1 °C 1034.5 hPa West 3.2 km/h 3.2 km/h 89% 0.0 mm 25 W/m2
09:18 2.7 °C 1.2 °C 1034.5 hPa West 1.4 km/h 3.2 km/h 90% 0.0 mm 28 W/m2
09:23 2.7 °C 1.1 °C 1034.5 hPa West 3.2 km/h 3.2 km/h 89% 0.0 mm 40 W/m2
09:28 2.7 °C 1.1 °C 1034.5 hPa West 1.4 km/h 3.2 km/h 89% 0.0 mm 33 W/m2
09:33 2.7 °C 1.1 °C 1034.5 hPa West 1.4 km/h 3.2 km/h 89% 0.0 mm 37 W/m2
09:38 2.6 °C 1 °C 1034.5 hPa West 1.4 km/h 3.2 km/h 89% 0.0 mm 40 W/m2
09:43 2.6 °C 1.1 °C 1034.5 hPa West 1.4 km/h 3.2 km/h 90% 0.0 mm 47 W/m2
09:48 2.5 °C 1 °C 1034.5 hPa West 1.4 km/h 4.8 km/h 90% 0.0 mm 54 W/m2
09:53 2.6 °C 1.1 °C 1034.9 hPa West 1.4 km/h 1.6 km/h 90% 0.0 mm 35 W/m2
09:58 2.6 °C 1.1 °C 1034.5 hPa West 1.4 km/h 4.8 km/h 90% 0.0 mm 37 W/m2
10:03 2.6 °C 1.1 °C 1034.5 hPa West 3.2 km/h 3.2 km/h 90% 0.0 mm 56 W/m2
10:08 2.6 °C 1.1 °C 1034.9 hPa West 1.4 km/h 1.6 km/h 90% 0.0 mm 60 W/m2
10:13 2.7 °C 1.2 °C 1034.9 hPa West 3.2 km/h 3.2 km/h 90% 0.0 mm 51 W/m2
10:18 2.7 °C 1.2 °C 1034.9 hPa WNW 1.4 km/h 4.8 km/h 90% 0.0 mm 49 W/m2
10:23 2.8 °C 1.3 °C 1034.9 hPa West 6.4 km/h 6.4 km/h 90% 0.0 mm 54 W/m2
10:28 2.9 °C 1.4 °C 1034.9 hPa West 4.7 km/h 6.4 km/h 90% 0.0 mm 60 W/m2
10:33 3.1 °C 1.6 °C 1034.9 hPa West 4.7 km/h 6.4 km/h 90% 0.0 mm 62 W/m2
10:38 3.2 °C 1.7 °C 1034.9 hPa WNW 1.4 km/h 6.4 km/h 90% 0.0 mm 90 W/m2
10:43 3.3 °C 1.7 °C 1034.9 hPa West 1.4 km/h 4.8 km/h 89% 0.0 mm 91 W/m2
10:48 3.5 °C 1.9 °C 1034.9 hPa West 6.4 km/h 11.3 km/h 89% 0.0 mm 97 W/m2
10:53 3.7 °C 2.1 °C 1034.9 hPa West 6.4 km/h 8 km/h 89% 0.0 mm 116 W/m2
10:58 3.9 °C 2.3 °C 1034.9 hPa West 3.2 km/h 6.4 km/h 89% 0.0 mm 148 W/m2
11:03 4.2 °C 2.4 °C 1034.9 hPa WNW 3.2 km/h 11.3 km/h 88% 0.0 mm 158 W/m2
11:08 4.4 °C 2.6 °C 1034.9 hPa WNW 4.7 km/h 9.7 km/h 88% 0.0 mm 162 W/m2
11:13 4.7 °C 2.7 °C 1034.9 hPa West 3.2 km/h 8 km/h 87% 0.0 mm 128 W/m2
11:18 4.8 °C 2.7 °C 1034.9 hPa WNW 1.4 km/h 6.4 km/h 86% 0.0 mm 114 W/m2
11:23 4.9 °C 2.6 °C 1035.2 hPa West 4.7 km/h 6.4 km/h 85% 0.0 mm 98 W/m2
11:28 5.1 °C 3 °C 1035.2 hPa West 1.4 km/h 6.4 km/h 86% 0.0 mm 84 W/m2
11:33 5.2 °C 2.9 °C 1034.9 hPa West 3.2 km/h 9.7 km/h 85% 0.0 mm 74 W/m2
11:38 5.2 °C 2.9 °C 1034.9 hPa WNW 3.2 km/h 4.8 km/h 85% 0.0 mm 69 W/m2
11:43 5.3 °C 3 °C 1035.2 hPa West 6.4 km/h 8 km/h 85% 0.0 mm 70 W/m2
11:48 5.3 °C 3 °C 1035.2 hPa WNW 4.7 km/h 9.7 km/h 85% 0.0 mm 63 W/m2
11:53 5.3 °C 3 °C 1035.2 hPa West 3.2 km/h 9.7 km/h 85% 0.0 mm 70 W/m2
11:58 5.3 °C 3 °C 1035.2 hPa West 3.2 km/h 9.7 km/h 85% 0.0 mm 56 W/m2
12:03 5.3 °C 3 °C 1035.2 hPa West 4.7 km/h 11.3 km/h 85% 0.0 mm 53 W/m2
12:08 5.3 °C 3 °C 1035.2 hPa West 4.7 km/h 11.3 km/h 85% 0.0 mm 72 W/m2
12:13 5.3 °C 3 °C 1034.9 hPa West 3.2 km/h 6.4 km/h 85% 0.0 mm 90 W/m2
12:18 5.4 °C 3.1 °C 1034.9 hPa WSW 6.4 km/h 11.3 km/h 85% 0.0 mm 86 W/m2
12:23 5.4 °C 2.9 °C 1034.9 hPa WNW 7.9 km/h 8 km/h 84% 0.0 mm 76 W/m2
12:28 5.5 °C 3 °C 1034.9 hPa West 4.7 km/h 4.8 km/h 84% 0.0 mm 67 W/m2
12:33 5.6 °C 3.1 °C 1034.9 hPa NW 3.2 km/h 3.2 km/h 84% 0.0 mm 74 W/m2
12:38 5.6 °C 3.1 °C 1034.9 hPa WNW 1.4 km/h 4.8 km/h 84% 0.0 mm 86 W/m2
12:43 5.7 °C 3.2 °C 1034.9 hPa WNW 3.2 km/h 6.4 km/h 84% 0.0 mm 84 W/m2
12:48 5.7 °C 3 °C 1034.5 hPa NW 3.2 km/h 6.4 km/h 83% 0.0 mm 86 W/m2
12:53 5.7 °C 3.2 °C 1034.5 hPa WNW 4.7 km/h 9.7 km/h 84% 0.0 mm 84 W/m2
12:58 5.8 °C 3.1 °C 1034.5 hPa NW 6.4 km/h 6.4 km/h 83% 0.0 mm 83 W/m2
13:03 5.8 °C 3.1 °C 1034.5 hPa WNW 1.4 km/h 6.4 km/h 83% 0.0 mm 86 W/m2
13:08 5.8 °C 3.1 °C 1034.5 hPa WNW 1.4 km/h 4.8 km/h 83% 0.0 mm 83 W/m2
13:13 5.8 °C 3.1 °C 1034.5 hPa NW 3.2 km/h 4.8 km/h 83% 0.0 mm 72 W/m2
13:18 5.8 °C 3.1 °C 1034.5 hPa WNW 3.2 km/h 6.4 km/h 83% 0.0 mm 67 W/m2
13:23 5.8 °C 3.1 °C 1034.5 hPa West 4.7 km/h 8 km/h 83% 0.0 mm 65 W/m2
13:28 5.8 °C 3.3 °C 1034.5 hPa WNW 6.4 km/h 8 km/h 84% 0.0 mm 54 W/m2
13:33 5.8 °C 3.3 °C 1034.5 hPa WNW 4.7 km/h 6.4 km/h 84% 0.0 mm 62 W/m2
13:38 5.8 °C 3.3 °C 1034.5 hPa WNW 3.2 km/h 9.7 km/h 84% 0.0 mm 67 W/m2
13:43 5.8 °C 3.3 °C 1034.5 hPa West 4.7 km/h 11.3 km/h 84% 0.0 mm 65 W/m2
13:48 5.7 °C 3.2 °C 1034.5 hPa West 4.7 km/h 6.4 km/h 84% 0.0 mm 58 W/m2
13:53 5.7 °C 3.2 °C 1034.5 hPa NW 4.7 km/h 6.4 km/h 84% 0.0 mm 58 W/m2
13:58 5.7 °C 3.4 °C 1034.5 hPa West 3.2 km/h 8 km/h 85% 0.0 mm 58 W/m2
14:03 5.7 °C 3.4 °C 1034.5 hPa West 6.4 km/h 11.3 km/h 85% 0.0 mm 54 W/m2
14:08 5.7 °C 3.4 °C 1034.5 hPa West 4.7 km/h 9.7 km/h 85% 0.0 mm 47 W/m2
14:13 5.6 °C 3.3 °C 1034.2 hPa WNW 6.4 km/h 11.3 km/h 85% 0.0 mm 44 W/m2
14:18 5.6 °C 3.3 °C 1034.5 hPa West 4.7 km/h 6.4 km/h 85% 0.0 mm 42 W/m2
14:23 5.5 °C 3.2 °C 1034.5 hPa WNW 4.7 km/h 11.3 km/h 85% 0.0 mm 40 W/m2
14:28 5.4 °C 3.1 °C 1034.5 hPa WSW 6.4 km/h 6.4 km/h 85% 0.0 mm 44 W/m2
14:33 5.4 °C 3.1 °C 1034.2 hPa West 4.7 km/h 9.7 km/h 85% 0.0 mm 42 W/m2
14:38 5.4 °C 3.1 °C 1034.5 hPa West 4.7 km/h 14.5 km/h 85% 0.0 mm 40 W/m2
14:43 5.4 °C 3.1 °C 1034.5 hPa WNW 1.4 km/h 6.4 km/h 85% 0.0 mm 39 W/m2
14:48 5.4 °C 3.1 °C 1034.2 hPa WNW 1.4 km/h 4.8 km/h 85% 0.0 mm 37 W/m2
14:53 5.4 °C 3.1 °C 1034.2 hPa Calm   3.2 km/h 85% 0.0 mm 33 W/m2
14:58 5.4 °C 3.1 °C 1034.2 hPa NW 4.7 km/h 6.4 km/h 85% 0.0 mm 30 W/m2
15:03 5.4 °C 3.1 °C 1034.2 hPa West 6.4 km/h 12.9 km/h 85% 0.0 mm 30 W/m2
15:08 5.3 °C 3 °C 1034.2 hPa WNW 4.7 km/h 11.3 km/h 85% 0.0 mm 30 W/m2
15:13 5.3 °C 3 °C 1034.2 hPa NW 3.2 km/h 12.9 km/h 85% 0.0 mm 25 W/m2
15:18 5.3 °C 3 °C 1034.2 hPa West 3.2 km/h 8 km/h 85% 0.0 mm 21 W/m2
15:23 5.3 °C 3 °C 1034.2 hPa WNW 6.4 km/h 8 km/h 85% 0.0 mm 19 W/m2
15:28 5.2 °C 2.9 °C 1034.5 hPa NW 6.4 km/h 11.3 km/h 85% 0.0 mm 21 W/m2
15:33 5.2 °C 2.9 °C 1034.5 hPa West 6.4 km/h 11.3 km/h 85% 0.0 mm 19 W/m2
15:38 5.2 °C 3.1 °C 1034.5 hPa WSW 6.4 km/h 9.7 km/h 86% 0.0 mm 19 W/m2
15:43 5.2 °C 3.1 °C 1034.5 hPa West 9.7 km/h 9.7 km/h 86% 0.0 mm 21 W/m2
15:48 5.2 °C 3.1 °C 1034.2 hPa NW 4.7 km/h 6.4 km/h 86% 0.0 mm 21 W/m2
15:53 5.2 °C 3.1 °C 1034.2 hPa WNW 4.7 km/h 6.4 km/h 86% 0.0 mm 19 W/m2
15:58 5.2 °C 3.1 °C 1034.2 hPa West 3.2 km/h 4.8 km/h 86% 0.0 mm 18 W/m2
16:03 5.2 °C 3.1 °C 1034.5 hPa WNW 3.2 km/h 3.2 km/h 86% 0.0 mm 16 W/m2
16:08 5.2 °C 3.1 °C 1034.2 hPa WSW 6.4 km/h 6.4 km/h 86% 0.0 mm 14 W/m2
16:13 5.2 °C 3.1 °C 1034.2 hPa WNW 4.7 km/h 9.7 km/h 86% 0.0 mm 14 W/m2
16:18 5.3 °C 3.1 °C 1034.2 hPa WNW 3.2 km/h 4.8 km/h 86% 0.0 mm 12 W/m2
16:23 5.3 °C 3.1 °C 1034.2 hPa Calm   3.2 km/h 86% 0.0 mm 12 W/m2
16:28 5.3 °C 3.1 °C 1034.2 hPa WSW 1.4 km/h 3.2 km/h 86% 0.0 mm 11 W/m2
16:33 5.3 °C 3.1 °C 1034.2 hPa WSW 1.4 km/h 4.8 km/h 86% 0.0 mm 9 W/m2
16:38 5.3 °C 3.1 °C 1034.2 hPa West 4.7 km/h 4.8 km/h 86% 0.0 mm 9 W/m2
16:43 5.3 °C 3.1 °C 1034.2 hPa West 1.4 km/h 4.8 km/h 86% 0.0 mm 7 W/m2
16:48 5.3 °C 3.1 °C 1034.2 hPa West 1.4 km/h 6.4 km/h 86% 0.0 mm 7 W/m2
16:53 5.3 °C 3.1 °C 1034.5 hPa West 3.2 km/h 6.4 km/h 86% 0.0 mm 5 W/m2
16:58 5.3 °C 3.1 °C 1034.5 hPa West 1.4 km/h 3.2 km/h 86% 0.0 mm 0 W/m2
17:04 5.3 °C 3.1 °C 1034.5 hPa West 4.7 km/h 6.4 km/h 86% 0.0 mm 0 W/m2
17:09 5.3 °C 3.3 °C 1034.5 hPa WNW 4.7 km/h 6.4 km/h 87% 0.0 mm 0 W/m2
17:14 5.3 °C 3.3 °C 1034.5 hPa West 1.4 km/h 6.4 km/h 87% 0.0 mm 0 W/m2
17:19 5.3 °C 3.3 °C 1034.5 hPa West 4.7 km/h 6.4 km/h 87% 0.0 mm 0 W/m2
17:24 5.3 °C 3.3 °C 1034.5 hPa West 4.7 km/h 6.4 km/h 87% 0.0 mm 0 W/m2
17:29 5.3 °C 3.3 °C 1034.5 hPa West 4.7 km/h 8 km/h 87% 0.0 mm 0 W/m2
17:34 5.3 °C 3.3 °C 1034.5 hPa WNW 4.7 km/h 6.4 km/h 87% 0.0 mm 0 W/m2
17:39 5.3 °C 3.3 °C 1034.5 hPa WNW 3.2 km/h 4.8 km/h 87% 0.0 mm 0 W/m2
17:44 5.3 °C 3.3 °C 1034.5 hPa West 1.4 km/h 9.7 km/h 87% 0.0 mm 0 W/m2
17:49 5.3 °C 3.3 °C 1034.5 hPa WNW 3.2 km/h 3.2 km/h 87% 0.0 mm 0 W/m2
17:54 5.3 °C 3.3 °C 1034.9 hPa WNW 1.4 km/h 8 km/h 87% 0.0 mm 0 W/m2
17:59 5.3 °C 3.3 °C 1034.9 hPa West 3.2 km/h 4.8 km/h 87% 0.0 mm 0 W/m2
18:04 5.3 °C 3.3 °C 1034.9 hPa WNW 4.7 km/h 6.4 km/h 87% 0.0 mm 0 W/m2
18:09 5.3 °C 3.3 °C 1034.9 hPa WNW 1.4 km/h 4.8 km/h 87% 0.0 mm 0 W/m2
18:14 5.3 °C 3.3 °C 1034.9 hPa WNW 4.7 km/h 6.4 km/h 87% 0.0 mm 0 W/m2
18:19 5.3 °C 3.3 °C 1034.9 hPa WNW 1.4 km/h 9.7 km/h 87% 0.0 mm 0 W/m2
18:24 5.3 °C 3.3 °C 1034.9 hPa West 6.4 km/h 6.4 km/h 87% 0.0 mm 0 W/m2
18:29 5.3 °C 3.3 °C 1034.9 hPa WNW 1.4 km/h 3.2 km/h 87% 0.0 mm 0 W/m2
18:34 5.3 °C 3.3 °C 1034.9 hPa West 3.2 km/h 4.8 km/h 87% 0.0 mm 0 W/m2
18:39 5.3 °C 3.3 °C 1034.9 hPa West 3.2 km/h 4.8 km/h 87% 0.0 mm 0 W/m2
18:44 5.3 °C 3.3 °C 1034.9 hPa West 1.4 km/h 3.2 km/h 87% 0.0 mm 0 W/m2
18:49 5.2 °C 3.4 °C 1034.9 hPa WNW 1.4 km/h 4.8 km/h 88% 0.0 mm 0 W/m2
18:54 5.2 °C 3.4 °C 1034.5 hPa WNW 3.2 km/h 3.2 km/h 88% 0.0 mm 0 W/m2
18:59 5.2 °C 3.4 °C 1034.5 hPa West 3.2 km/h 4.8 km/h 88% 0.0 mm 0 W/m2
19:04 5.2 °C 3.4 °C 1034.9 hPa NW 4.7 km/h 4.8 km/h 88% 0.0 mm 0 W/m2
19:09 5.2 °C 3.4 °C 1034.9 hPa West 1.4 km/h 4.8 km/h 88% 0.0 mm 0 W/m2
19:14 5.2 °C 3.4 °C 1034.9 hPa West 3.2 km/h 4.8 km/h 88% 0.0 mm 0 W/m2
19:27 5.2 °C 3.4 °C 1034.9 hPa West 3.2 km/h 6.4 km/h 88% 0.0 mm 0 W/m2
19:32 5.2 °C 3.4 °C 1034.9 hPa WNW 1.4 km/h 4.8 km/h 88% 0.0 mm 0 W/m2
19:37 5.2 °C 3.4 °C 1034.9 hPa NW 3.2 km/h 4.8 km/h 88% 0.0 mm 0 W/m2
19:42 5.2 °C 3.4 °C 1034.9 hPa West 3.2 km/h 6.4 km/h 88% 0.0 mm 0 W/m2
19:47 5.1 °C 3.3 °C 1034.9 hPa West 3.2 km/h 3.2 km/h 88% 0.0 mm 0 W/m2
19:52 5.1 °C 3.3 °C 1034.9 hPa West 3.2 km/h 4.8 km/h 88% 0.0 mm 0 W/m2
19:57 5.1 °C 3.4 °C 1035.2 hPa West 4.7 km/h 4.8 km/h 89% 0.0 mm 0 W/m2
20:02 5.1 °C 3.3 °C 1035.2 hPa West 1.4 km/h 4.8 km/h 88% 0.0 mm 0 W/m2
20:14 5.1 °C 3.4 °C 1035.2 hPa West 4.7 km/h 6.4 km/h 89% 0.0 mm 0 W/m2
20:28 5.1 °C 3.4 °C 1035.2 hPa West 4.7 km/h 4.8 km/h 89% 0.0 mm 0 W/m2
20:33 5 °C 3.3 °C 1035.2 hPa West 6.4 km/h 6.4 km/h 89% 0.0 mm 0 W/m2
20:38 5 °C 3.3 °C 1035.2 hPa West 6.4 km/h 9.7 km/h 89% 0.0 mm 0 W/m2
20:43 5 °C 3.3 °C 1035.2 hPa West 4.7 km/h 6.4 km/h 89% 0.0 mm 0 W/m2
20:48 5 °C 3.3 °C 1035.2 hPa West 3.2 km/h 8 km/h 89% 0.0 mm 0 W/m2
20:53 5 °C 3.3 °C 1035.6 hPa West 3.2 km/h 6.4 km/h 89% 0.0 mm 0 W/m2
20:58 4.9 °C 3.2 °C 1035.6 hPa West 4.7 km/h 6.4 km/h 89% 0.0 mm 0 W/m2
21:03 4.9 °C 3.2 °C 1035.6 hPa WNW 1.4 km/h 4.8 km/h 89% 0.0 mm 0 W/m2
21:08 4.9 °C 3.2 °C 1035.6 hPa West 3.2 km/h 6.4 km/h 89% 0.0 mm 0 W/m2
21:13 4.9 °C 3.4 °C 1035.2 hPa West 3.2 km/h 6.4 km/h 90% 0.0 mm 0 W/m2
21:18 4.8 °C 3.1 °C 1035.2 hPa West 4.7 km/h 6.4 km/h 89% 0.0 mm 0 W/m2
21:23 4.8 °C 3.3 °C 1035.2 hPa WSW 1.4 km/h 11.3 km/h 90% 0.0 mm 0 W/m2
21:28 4.8 °C 3.3 °C 1035.2 hPa West 1.4 km/h 6.4 km/h 90% 0.0 mm 0 W/m2
21:33 4.8 °C 3.3 °C 1035.2 hPa West 3.2 km/h 6.4 km/h 90% 0.0 mm 0 W/m2
21:38 4.8 °C 3.3 °C 1035.2 hPa West 4.7 km/h 8 km/h 90% 0.0 mm 0 W/m2
21:43 4.8 °C 3.3 °C 1035.2 hPa West 1.4 km/h 6.4 km/h 90% 0.0 mm 0 W/m2
21:48 4.8 °C 3.3 °C 1035.2 hPa West 4.7 km/h 6.4 km/h 90% 0.0 mm 0 W/m2
21:53 4.8 °C 3.3 °C 1035.6 hPa West 3.2 km/h 4.8 km/h 90% 0.0 mm 0 W/m2
21:58 4.8 °C 3.3 °C 1035.6 hPa West 1.4 km/h 4.8 km/h 90% 0.0 mm 0 W/m2
22:03 4.8 °C 3.3 °C 1035.6 hPa West 3.2 km/h 4.8 km/h 90% 0.0 mm 0 W/m2
22:08 4.7 °C 3.2 °C 1035.2 hPa West 1.4 km/h 6.4 km/h 90% 0.0 mm 0 W/m2
22:13 4.7 °C 3.2 °C 1035.2 hPa Calm   3.2 km/h 90% 0.0 mm 0 W/m2
22:18 4.7 °C 3.2 °C 1035.2 hPa West 1.4 km/h 6.4 km/h 90% 0.0 mm 0 W/m2
22:23 4.7 °C 3.2 °C 1035.2 hPa Calm     90% 0.0 mm 0 W/m2
22:28 4.7 °C 3.2 °C 1035.2 hPa Calm     90% 0.0 mm 0 W/m2
22:33 4.7 °C 3.2 °C 1035.2 hPa Calm   3.2 km/h 90% 0.0 mm 0 W/m2
22:38 4.7 °C 3.2 °C 1035.2 hPa West 1.4 km/h 3.2 km/h 90% 0.0 mm 0 W/m2
22:43 4.6 °C 3.1 °C 1034.9 hPa West 3.2 km/h 3.2 km/h 90% 0.0 mm 0 W/m2
22:48 4.6 °C 3.1 °C 1035.2 hPa West 1.4 km/h 4.8 km/h 90% 0.0 mm 0 W/m2
22:53 4.6 °C 3.1 °C 1034.9 hPa Calm   1.6 km/h 90% 0.0 mm 0 W/m2
22:58 4.6 °C 3.1 °C 1034.9 hPa West 1.4 km/h 3.2 km/h 90% 0.0 mm 0 W/m2
23:03 4.6 °C 3.1 °C 1034.9 hPa Calm   1.6 km/h 90% 0.0 mm 0 W/m2
23:08 4.6 °C 3.1 °C 1034.9 hPa Calm     90% 0.0 mm 0 W/m2
23:13 4.6 °C 3.1 °C 1034.9 hPa Calm     90% 0.0 mm 0 W/m2
23:18 4.6 °C 3.3 °C 1034.9 hPa West 3.2 km/h 3.2 km/h 91% 0.0 mm 0 W/m2
23:23 4.6 °C 3.3 °C 1034.9 hPa West 3.2 km/h 3.2 km/h 91% 0.0 mm 0 W/m2
23:28 4.5 °C 3.2 °C 1034.9 hPa West 3.2 km/h 3.2 km/h 91% 0.0 mm 0 W/m2
23:33 4.5 °C 3.2 °C 1034.5 hPa West 1.4 km/h 3.2 km/h 91% 0.0 mm 0 W/m2
23:38 4.4 °C 3.1 °C 1034.5 hPa Calm   3.2 km/h 91% 0.0 mm 0 W/m2
23:43 4.4 °C 3.1 °C 1034.5 hPa West 1.4 km/h 1.6 km/h 91% 0.0 mm 0 W/m2
23:48 4.4 °C 3.1 °C 1034.5 hPa West 1.4 km/h 3.2 km/h 91% 0.0 mm 0 W/m2
23:53 4.4 °C 3.1 °C 1034.5 hPa West 3.2 km/h 3.2 km/h 91% 0.0 mm 0 W/m2
23:58 4.5 °C 3.2 °C 1034.5 hPa West 3.2 km/h 4.8 km/h 91% 0.0 mm 0 W/m2
Juneau County Weather
Compliments of Weather Underground - 4 mb